Theta_e
310 310 310 310 309 309 309 309 310 310 311 311 312 312 312 312 312 312 312 313 312 312 312 312 312 313 312 312 313 313 312 312 313 313 313 312 312 312 313 313 314 313 313 313 313 312 311 311 311 310 310 310 310 310 310 309 309 309 309 309 309 309 309 310 311 311 311 312 314 315 317 319 321 322 323 322 322 321 321 323 323 323 323 323 322 322 322
310 309 309 309 309 309 309 309 310 310 311 311 312 312 312 312 312 312 313 313 313 312 312 312 312 312 312 312 312 312 312 312 313 313 312 312 312 312 312 313 312 312 311 312 312 311 310 310 310 310 310 309 309 310 309 309 309 308 308 309 309 309 308 309 309 309 309 310 310 311 313 314 316 318 320 321 322 322 321 322 322 322 322 322 322 323 322
309 309 309 309 309 309 309 309 309 309 310 311 311 311 312 312 312 312 313 313 313 312 312 312 312 312 311 311 312 312 311 312 312 312 312 311 311 311 312 311 311 311 310 311 311 311 310 310 309 309 308 308 309 309 308 308 308 308 308 308 309 309 309 309 309 309 309 309 309 310 310 311 312 313 315 317 320 321 321 320 321 321 322 322 322 322 322
309 309 308 308 308 308 309 310 310 310 310 311 311 311 311 311 312 312 312 312 312 311 311 310 310 310 310 310 311 311 311 310 311 311 312 311 311 311 311 310 310 310 309 310 310 310 309 309 309 308 308 308 308 309 308 308 307 307 308 308 309 309 309 309 308 309 309 309 309 309 309 310 311 311 312 313 316 319 319 320 320 320 320 321 321 321 321
309 309 308 308 308 308 309 309 310 310 309 310 310 310 310 311 311 311 310 310 310 310 310 310 310 310 310 310 310 310 310 310 310 311 311 311 311 311 310 309 309 309 309 309 310 309 309 309 308 308 307 308 309 309 308 308 308 307 307 307 308 308 308 308 308 308 308 309 309 309 310 310 311 312 312 312 313 315 317 318 319 319 319 320 320 320 320
308 308 308 309 308 307 309 309 309 310 309 309 309 309 310 310 309 309 309 310 310 310 310 310 310 310 310 310 310 310 310 311 311 311 311 311 310 310 309 309 309 309 309 310 309 309 309 308 308 307 308 309 309 308 308 308 307 307 307 307 308 308 308 308 308 308 309 309 309 309 310 310 311 312 312 312 313 313 315 315 317 317 318 319 319 319 319
308 308 307 308 308 308 309 309 308 309 308 308 308 308 309 308 309 310 310 310 310 310 309 309 309 309 309 309 309 309 309 310 311 311 310 310 309 309 309 309 309 309 310 309 309 309 308 308 307 308 308 308 308 308 308 308 307 307 308 307 308 308 308 308 308 309 309 309 309 309 309 310 310 311 311 312 313 313 314 315 315 316 316 317 318 318 318
306 306 306 308 308 308 308 308 307 307 307 307 307 307 307 307 308 309 309 308 308 308 308 309 308 309 308 308 309 309 309 308 310 311 310 309 309 308 308 309 309 309 309 308 308 309 308 307 307 307 307 307 307 308 308 308 308 307 307 307 308 308 308 308 308 309 310 310 310 310 310 310 310 310 311 312 313 313 313 313 314 315 315 316 317 317 318
306 306 306 307 308 307 307 307 307 307 308 307 307 307 308 308 308 308 308 308 307 307 307 307 307 308 308 308 307 308 308 309 309 309 309 308 308 308 308 308 308 308 307 307 307 307 307 307 307 306 307 307 307 307 307 308 307 307 307 307 307 307 307 307 308 308 309 310 310 310 311 310 310 311 311 312 313 313 313 313 313 314 314 315 316 316 316
305 305 305 306 307 306 307 308 308 308 308 308 308 307 307 307 307 307 306 307 307 307 307 307 307 307 307 307 307 306 307 307 307 307 308 308 307 307 307 307 306 306 306 306 306 305 306 306 306 306 307 307 307 307 307 307 307 307 306 307 307 307 307 307 307 308 308 309 309 310 310 310 311 311 311 312 312 313 313 313 313 313 313 313 314 315 315
305 305 305 305 305 306 307 308 307 306 307 307 307 305 305 305 306 305 305 306 306 306 306 306 306 306 306 307 307 306 305 305 305 305 306 306 306 306 305 306 305 306 306 305 305 305 306 306 306 306 306 306 306 306 307 307 307 306 307 307 307 307 307 307 307 308 308 308 309 309 310 310 310 311 311 312 312 313 314 313 313 313 312 312 314 314 313
304 305 304 304 305 305 306 307 306 305 306 306 305 305 304 304 304 304 303 304 305 305 305 305 305 305 306 306 306 304 304 305 305 304 305 305 305 305 304 304 304 304 304 304 304 305 306 306 306 306 306 306 306 306 306 307 307 307 307 307 307 306 307 307 307 307 308 308 309 310 310 310 311 311 311 312 312 312 313 312 312 312 312 313 312 310 308
304 304 304 304 304 305 306 305 304 305 305 305 304 304 303 303 304 303 303 303 303 304 304 304 304 304 305 305 304 304 304 304 304 305 305 304 304 304 304 303 303 303 303 303 303 304 304 305 305 305 305 305 306 306 307 307 307 307 307 307 306 306 307 307 307 307 307 308 309 310 310 310 310 311 311 311 311 311 311 311 312 312 312 311 309 305 304
303 303 303 303 304 305 304 303 303 304 304 303 303 302 302 302 303 303 303 303 303 303 303 304 303 303 303 303 303 304 304 303 304 304 304 304 304 303 303 303 303 303 303 303 303 303 303 304 304 304 304 304 305 305 305 306 306 306 306 306 306 306 306 307 307 308 308 308 309 309 310 310 310 310 310 310 310 311 311 311 312 312 310 307 305 303 301
303 303 303 303 304 304 303 302 302 303 303 302 301 301 302 302 302 302 302 302 302 302 302 302 303 303 302 303 303 303 303 303 303 304 304 304 304 303 302 302 302 302 302 303 303 303 303 303 303 304 304 304 304 304 304 305 305 305 306 306 306 306 307 307 307 308 308 308 309 309 309 309 309 309 309 309 309 310 311 311 311 311 308 305 304 302 300
302 302 302 302 302 302 302 301 301 301 301 301 301 301 301 301 301 301 301 301 301 301 301 301 302 302 302 302 302 302 302 302 302 303 303 303 302 302 301 301 301 301 302 302 303 303 303 303 303 303 304 304 304 304 304 304 304 305 305 306 306 307 307 307 307 308 308 308 308 308 308 308 308 308 308 308 309 310 310 310 310 308 306 303 302 301 299
301 301 301 301 301 301 301 301 300 300 300 301 300 300 300 300 300 300 300 300 301 301 301 301 301 301 301 301 301 301 301 301 301 301 302 301 302 301 301 301 301 301 302 302 302 303 302 303 303 303 304 304 304 304 304 304 304 305 305 305 306 306 306 306 307 307 307 307 307 307 307 307 307 308 308 308 309 310 309 308 307 305 303 301 301 300 298
299 300 300 300 300 300 300 300 299 300 300 300 300 300 299 300 300 300 299 299 300 300 300 300 300 300 300 300 300 300 300 301 301 301 302 302 302 302 302 302 301 301 302 302 302 302 302 302 303 303 304 304 304 304 304 304 305 305 305 305 305 305 305 305 306 306 306 306 307 307 306 307 308 308 308 308 308 308 307 306 305 303 301 300 300 299 298
298 298 299 299 299 299 299 299 299 299 299 299 299 299 299 299 299 299 299 299 299 299 299 299 299 299 299 299 300 300 300 300 300 301 301 301 301 301 301 301 301 301 302 302 302 302 302 303 303 303 303 303 304 304 304 304 304 304 304 304 304 304 304 304 305 305 305 306 306 306 306 307 307 307 308 308 307 306 305 304 303 302 300 300 299 298 298
298 298 298 298 298 298 298 298 298 298 298 298 298 298 298 298 298 298 299 299 298 298 298 299 299 299 299 299 299 299 299 299 300 300 301 301 301 301 301 300 301 301 302 302 302 302 302 302 303 303 303 303 304 304 304 304 304 304 304 304 304 304 304 304 305 305 305 305 306 306 306 307 306 306 305 305 304 303 303 303 302 301 300 299 298 297 297
297 298 298 297 297 297 298 298 298 298 297 297 298 298 298 298 297 298 298 298 298 298 298 298 298 298 298 299 299 298 299 299 299 300 301 300 300 300 300 300 301 301 302 302 302 302 303 303 303 303 303 304 304 305 305 304 304 303 303 303 303 303 303 304 304 304 305 305 306 306 305 304 303 303 303 302 301 300 300 299 298 297 297 297 296 296 296
297 297 297 297 296 296 297 297 297 297 297 297 297 297 297 297 297 297 297 298 299 299 299 298 298 298 298 298 298 298 298 299 300 300 300 300 300 300 300 301 301 302 302 302 303 303 303 303 304 304 304 304 305 305 305 304 303 303 302 302 302 303 303 304 304 304 304 305 304 303 302 300 299 299 299 299 299 298 297 296 296 296 296 296 296 296 296
296 296 296 296 296 296 296 296 297 297 298 298 298 297 298 298 298 298 299 299 299 299 300 300 299 299 298 299 299 299 298 299 300 300 299 300 301 301 301 301 302 302 302 302 303 303 303 304 304 304 304 305 305 304 303 302 302 301 301 301 301 302 302 302 302 303 303 303 302 300 299 298 297 296 296 296 296 296 295 295 295 296 296 296 296 297 296
296 296 296 296 296 296 297 297 297 298 298 298 298 298 298 298 299 299 299 298 299 299 299 299 300 299 300 300 300 299 299 299 300 300 300 301 301 301 301 301 302 302 302 302 302 303 303 303 304 304 304 304 304 302 301 300 300 300 300 300 300 300 299 299 299 300 300 300 299 298 298 297 296 295 294 294 294 294 294 295 295 295 295 294 294 294 293
296 296 297 297 297 297 297 297 297 298 299 299 298 298 298 298 299 299 298 298 299 298 298 298 299 299 299 300 300 300 300 300 299 300 301 301 301 301 301 301 302 302 302 302 302 302 303 303 303 304 304 304 302 301 300 299 298 298 298 298 298 298 298 297 297 298 298 298 297 297 297 296 295 295 294 294 294 294 293 293 294 293 293 293 292 292 292
297 297 297 297 297 297 297 297 297 297 298 298 297 297 298 298 297 298 298 298 298 298 298 298 298 298 298 299 299 300 301 301 300 300 301 301 301 301 301 301 301 302 302 302 303 303 303 303 303 303 304 303 301 300 299 299 298 298 297 297 297 297 297 297 297 297 297 297 297 296 296 295 295 295 295 295 294 294 293 293 293 293 293 292 292 292 292
297 297 297 297 297 297 297 297 296 297 298 298 297 297 297 297 296 297 297 297 297 298 297 298 298 298 299 299 300 300 301 301 300 300 300 300 300 300 300 300 301 301 301 302 302 302 302 302 302 303 303 301 300 300 299 298 298 297 297 297 297 296 296 296 296 296 296 295 296 295 295 295 295 295 295 295 295 295 295 294 294 293 293 292 291 291 291
296 296 296 296 296 296 296 296 296 297 297 297 297 297 297 297 297 297 297 297 297 298 298 298 298 299 299 299 299 300 300 300 300 300 299 299 299 299 299 299 299 300 300 300 300 301 301 301 302 303 302 300 300 300 299 298 298 298 297 297 297 296 296 296 296 296 295 295 296 296 296 296 296 295 295 295 295 295 295 295 295 295 294 293 292 292 292
296 295 296 296 296 296 296 296 296 296 296 296 297 297 297 296 296 296 296 297 297 298 297 297 297 297 297 297 298 298 298 298 298 298 297 297 297 297 297 297 298 298 299 299 299 300 300 300 302 302 301 299 300 299 298 298 298 298 298 298 297 297 297 296 296 296 296 297 297 297 296 296 296 296 296 297 297 297 297 297 297 296 296 295 294 293 292
295 295 296 296 296 296 296 296 296 296 296 296 296 296 296 295 295 295 295 295 295 295 295 295 295 295 295 295 295 295 295 295 295 295 295 295 295 295 295 295 296 296 297 297 298 299 300 300 302 302 300 299 299 299 299 299 299 299 299 299 298 298 298 297 297 297 297 297 297 297 297 297 297 297 298 297 297 298 298 298 298 298 297 297 296 296 295
296 296 296 296 296 296 295 296 296 296 296 295 295 294 294 293 293 293 293 293 293 293 293 293 293 293 293 293 293 293 293 294 294 293 293 293 293 293 293 293 293 294 295 297 298 299 300 301 302 300 299 299 299 299 299 300 299 299 299 299 299 298 298 298 298 298 297 297 297 297 298 298 298 298 298 298 298 298 298 298 298 298 298 298 298 298 297
296 296 296 296 296 295 295 295 295 295 295 294 293 293 293 292 292 292 292 292 292 292 292 292 292 292 292 291 291 291 291 292 291 291 291 291 291 291 291 291 291 292 293 294 296 298 300 302 301 299 298 299 299 299 299 299 300 300 300 299 298 298 297 297 298 298 297 297 297 297 298 298 298 298 298 298 298 298 298 298 298 298 298 298 298 297 295
296 296 296 296 296 296 295 295 295 295 294 293 293 293 293 292 292 292 292 292 292 291 291 291 291 290 290 290 289 289 289 290 290 290 289 289 290 290 290 290 290 290 291 293 296 299 301 301 299 298 298 299 299 299 299 300 300 300 300 299 299 298 297 296 297 297 297 297 297 297 297 298 298 298 298 298 298 298 298 298 298 298 298 298 298 296 294
296 296 295 295 296 295 295 294 294 294 294 293 293 293 292 292 292 292 291 291 291 290 290 290 289 289 289 289 289 289 289 289 289 289 288 288 289 289 290 290 290 290 290 291 294 296 299 299 299 298 299 299 299 299 300 300 299 299 299 299 298 298 297 296 296 297 297 297 297 298 298 298 298 298 298 298 298 298 298 298 298 298 298 298 298 296 294
296 296 296 296 295 295 294 294 294 294 294 293 292 292 292 291 291 291 290 290 290 289 289 289 288 289 289 289 289 289 289 289 289 288 288 288 288 288 289 289 289 289 290 290 291 293 295 297 298 298 298 298 298 298 298 298 298 297 297 297 298 298 297 297 296 297 297 298 298 298 298 298 298 298 298 299 298 298 297 297 297 297 298 298 297 296 295
296 296 295 295 295 295 294 294 294 294 294 293 293 292 292 291 291 290 290 290 289 288 288 288 288 288 289 289 289 289 289 289 289 288 288 287 288 288 289 289 289 289 289 289 289 291 293 294 296 296 296 296 296 296 296 296 296 296 296 296 297 298 297 297 297 298 298 298 297 297 296 296 297 297 298 298 298 297 297 297 297 297 297 296 295 295 295
295 295 295 294 294 295 295 295 294 294 294 293 293 292 292 291 291 290 290 289 289 288 288 288 288 288 289 289 289 288 288 289 289 289 288 287 287 288 288 288 288 288 288 288 288 289 291 293 294 295 294 294 294 294 295 295 296 296 296 297 297 297 298 298 298 299 298 298 297 296 296 297 297 297 297 297 296 296 296 296 296 296 295 295 295 294 295
295 295 294 294 294 295 294 294 294 294 294 293 292 292 291 291 291 290 289 289 288 288 288 288 288 289 289 289 289 288 288 288 288 289 289 288 287 287 287 287 287 288 287 287 287 288 290 292 293 293 293 293 293 293 294 295 295 296 297 297 297 297 298 298 298 298 298 298 297 297 297 297 296 296 296 295 295 293 293 293 294 294 295 295 294 294 294
295 295 294 295 295 294 294 293 293 293 293 293 293 292 291 291 291 290 290 289 289 288 289 289 289 289 289 289 289 288 288 288 288 288 288 288 287 287 286 286 286 287 287 286 287 288 289 290 291 291 291 291 292 292 293 294 295 295 296 296 296 296 297 297 297 297 297 296 296 296 295 295 294 294 294 294 294 293 292 292 293 293 294 294 294 294 294
296 295 295 295 294 294 293 293 292 292 293 293 293 292 292 291 291 290 290 289 289 288 288 289 289 289 289 289 289 288 288 287 287 287 288 288 287 287 286 285 285 286 286 286 286 287 288 289 289 289 289 290 290 291 292 293 293 294 294 295 295 295 295 296 296 296 295 295 295 295 294 293 293 293 293 293 293 293 293 293 293 293 293 293 293 293 293
295 295 295 294 294 294 293 293 292 292 292 292 292 292 292 291 291 290 290 290 289 289 289 289 289 289 289 289 289 289 288 287 287 286 287 287 287 287 286 285 285 285 286 286 286 286 287 287 288 288 289 289 290 290 291 292 292 292 292 293 294 294 294 294 294 294 294 294 294 294 294 293 293 293 293 293 293 293 293 293 293 293 293 293 293 292 291
295 294 295 295 294 294 294 293 292 292 292 291 291 291 291 291 290 290 290 290 290 290 290 289 289 289 289 289 289 289 288 288 287 287 286 286 286 286 286 285 285 285 286 286 286 286 286 286 287 288 288 289 290 291 291 291 291 291 291 292 292 293 293 293 294 293 293 294 294 294 293 293 293 293 293 292 292 292 292 292 292 291 291 291 291 291 290
295 294 295 295 295 294 294 293 292 292 291 291 291 291 290 290 290 289 289 289 289 290 290 290 290 290 289 289 288 288 288 288 288 287 286 285 285 285 285 285 285 285 285 286 286 285 286 286 287 287 288 289 291 291 292 291 291 291 290 290 291 292 292 293 293 293 293 293 293 293 293 292 293 292 292 292 291 291 290 290 290 290 290 289 289 289 288
295 295 295 295 295 295 295 294 293 292 291 291 291 290 290 290 290 290 289 289 289 289 289 290 290 291 290 289 288 288 287 287 287 287 287 286 285 284 284 284 284 284 285 285 285 285 285 285 286 287 288 289 290 291 291 292 291 291 291 290 290 291 291 292 292 292 292 292 292 292 291 291 291 291 291 290 290 289 289 289 288 288 288 288 287 287 286
295 295 295 295 295 295 295 294 293 292 291 291 290 290 290 290 290 290 289 289 289 288 288 289 289 290 290 290 290 288 287 287 286 286 286 286 285 284 283 283 284 284 284 284 285 285 284 285 286 287 287 288 289 290 290 290 290 290 290 290 290 290 290 290 291 291 291 291 291 291 290 290 290 289 289 288 288 288 287 287 287 287 286 286 286 286 285
295 294 294 294 295 295 295 294 293 292 291 291 291 291 291 290 290 290 290 289 289 289 288 288 288 288 289 290 290 289 289 288 287 286 285 285 284 283 283 283 283 283 283 283 284 284 284 284 285 286 287 288 288 289 289 289 289 289 289 289 289 289 289 289 289 289 289 289 289 289 289 289 289 288 288 287 287 287 286 286 286 286 285 285 285 284 284
295 294 294 294 295 295 295 294 292 292 292 293 292 292 291 291 291 290 290 289 289 289 289 288 288 288 287 288 289 289 289 289 288 287 286 285 284 284 283 284 283 283 283 282 283 283 283 284 285 285 286 287 288 288 288 289 289 289 288 288 288 288 288 289 289 289 288 288 288 288 288 288 288 287 287 287 286 286 286 286 286 285 285 284 284 283 283
295 294 294 295 295 295 295 294 293 293 293 293 292 292 291 291 291 290 290 290 290 290 289 289 288 288 287 287 287 287 288 288 288 287 286 285 285 284 284 284 284 284 284 284 283 282 283 284 284 285 286 287 287 287 287 287 287 287 287 287 287 287 287 287 288 287 287 287 287 287 287 287 287 287 286 286 286 286 286 286 285 285 284 284 283 283 283
295 295 295 295 295 295 295 293 293 294 294 293 292 292 291 291 291 291 291 290 290 290 290 289 289 288 288 287 287 286 286 287 287 286 286 285 285 285 284 284 284 285 286 286 284 283 283 283 284 284 285 286 286 286 286 286 286 286 286 286 285 285 285 286 286 286 286 287 287 287 287 286 286 286 286 286 285 285 286 285 284 284 284 283 283 283 283
295 295 295 295 295 295 294 293 293 293 293 292 292 292 292 292 292 292 291 290 290 290 289 289 289 288 288 288 287 287 286 286 286 285 285 285 284 284 284 284 284 284 285 286 285 284 284 283 284 284 285 285 285 285 285 285 285 285 285 285 285 284 284 284 285 285 285 286 286 286 286 286 285 285 285 285 284 284 284 283 283 282 283 283 283 283 283
295 295 295 295 294 294 293 293 293 293 293 292 292 292 291 292 292 291 290 290 290 290 290 289 289 289 288 287 287 286 286 286 286 286 286 285 285 284 284 284 284 284 284 285 285 285 284 283 283 284 284 285 284 284 284 284 284 284 284 284 284 284 284 284 284 284 284 284 285 285 285 285 284 284 284 284 284 284 284 283 283 282 283 283 283 283 282
294 294 294 294 294 293 293 293 293 293 293 292 292 292 292 292 292 291 289 289 289 290 290 289 289 288 288 287 286 286 285 285 286 285 285 285 285 285 285 284 284 284 284 284 284 284 284 284 283 283 284 284 284 283 283 283 283 283 283 283 283 283 283 283 284 283 283 283 283 283 283 283 283 283 284 284 284 284 284 283 283 283 283 282 282 282 282
Wind_Speed
16 17 17 16 16 15 16 16 16 17 18 17 15 15 15 13 11 12 13 15 14 12 11 9 5 5 7 8 7 7 7 6 6 6 5 5 5 6 6 6 7 7 7 7 7 7 7 7 7 6 7 8 7 7 7 7 6 6 6 5 5 4 3 3 3 4 4 5 5 4 5 7 9 11 12 14 17 18 18 18 18 18 18 18 19 20 21
15 17 16 16 16 16 17 18 18 18 18 19 18 18 18 17 17 18 17 19 18 14 12 12 9 6 6 7 8 8 9 9 9 8 7 6 6 6 6 6 6 7 7 7 7 7 6 5 6 6 6 6 6 6 6 5 5 5 4 4 4 3 3 3 4 5 6 6 7 7 7 8 8 9 9 10 12 13 15 17 18 18 18 18 19 20 21
13 15 16 16 17 18 18 19 19 19 18 19 18 18 17 16 17 19 18 17 15 11 10 13 13 10 9 9 10 10 10 10 10 10 9 8 7 7 6 6 6 6 7 6 6 6 6 5 5 5 4 4 4 4 4 4 4 5 4 4 4 4 4 4 5 6 7 7 7 8 8 9 10 10 10 10 9 10 11 13 15 16 16 17 18 20 22
11 12 15 17 15 16 19 19 19 19 18 17 16 15 15 14 15 16 16 14 10 9 11 13 15 15 15 13 13 12 11 11 12 11 11 9 8 7 7 5 5 6 6 6 5 5 4 4 4 4 4 2 3 3 3 3 3 3 3 3 4 4 5 6 6 6 7 7 8 9 9 9 10 10 11 11 11 11 11 12 14 14 15 16 17 19 20
10 12 15 13 9 10 12 12 13 16 18 18 17 16 17 17 15 13 13 12 10 11 12 12 13 14 14 13 12 11 10 11 11 11 11 9 8 7 7 5 4 4 4 5 5 4 3 2 3 4 3 2 2 2 2 2 2 3 4 4 5 5 6 7 7 7 7 8 9 9 9 9 10 10 11 12 12 13 13 14 14 14 16 17 17 18 18
10 12 13 10 8 9 8 5 5 10 13 15 16 16 16 16 15 13 13 13 12 12 11 11 13 14 13 11 9 8 8 7 7 10 10 7 6 6 5 4 3 2 2 4 4 3 2 2 3 3 2 1 1 2 3 3 4 5 6 6 6 7 8 8 8 8 8 8 9 9 9 10 10 11 11 12 13 13 14 14 15 15 17 17 17 18 18
10 11 10 10 11 10 6 4 3 4 7 9 11 12 13 13 12 12 13 13 12 12 11 11 13 14 13 11 9 9 10 9 9 10 8 6 7 7 5 4 3 2 0 1 2 2 1 2 2 2 2 2 3 4 4 5 5 6 7 7 7 8 8 9 9 9 9 9 9 10 10 10 11 12 12 13 13 13 14 14 15 16 16 17 18 18 18
9 9 9 11 10 7 6 6 3 2 5 8 9 11 12 10 8 9 10 10 9 9 9 8 9 11 11 9 7 7 8 8 9 9 8 7 7 5 3 4 4 4 3 1 1 1 2 3 3 3 4 4 5 6 6 6 7 7 8 8 8 8 9 9 10 9 9 10 10 10 11 11 12 12 13 13 13 13 14 15 15 16 15 16 16 16 17
8 9 10 10 10 10 10 7 2 1 3 5 6 9 9 6 4 6 8 9 9 8 8 7 7 8 9 8 4 3 5 5 4 4 4 5 4 4 5 5 6 6 5 2 1 1 3 4 5 5 5 5 6 7 7 8 8 9 9 10 10 10 10 10 10 9 9 10 11 11 11 12 13 13 13 13 13 13 14 15 15 16 16 15 15 16 17
7 9 9 9 10 10 6 1 5 5 4 4 4 7 7 3 1 4 8 9 8 7 7 8 7 6 7 6 2 1 1 2 4 4 2 4 4 6 7 7 8 8 6 3 3 4 4 5 6 6 6 6 7 9 9 9 10 10 11 11 12 12 12 12 11 11 11 11 12 12 12 12 13 13 13 13 13 13 13 14 15 15 15 15 15 14 14
8 9 9 8 9 6 1 4 4 4 4 4 3 7 5 1 3 6 9 8 7 6 6 7 7 7 6 4 2 5 4 1 2 3 5 5 5 6 7 7 8 8 6 6 7 7 6 7 6 6 7 8 9 10 10 10 11 12 12 13 13 14 14 14 14 13 13 13 13 13 13 13 13 13 13 13 13 13 13 14 15 15 15 16 13 9 8
9 10 8 8 7 1 4 3 2 3 4 3 4 7 2 4 5 6 8 8 7 6 7 7 7 7 5 1 2 5 7 5 4 4 5 6 7 8 9 8 7 7 8 9 9 8 8 8 8 8 9 10 10 10 11 11 12 12 13 14 15 16 16 16 16 15 15 14 14 13 14 14 13 13 13 13 13 13 14 14 14 14 12 10 6 7 9
10 10 9 8 5 2 5 3 2 3 3 4 6 6 2 3 4 5 6 7 8 8 8 7 6 7 6 4 1 3 6 8 8 8 8 9 9 10 11 9 8 9 11 11 10 10 10 10 10 9 10 10 11 11 11 12 13 13 14 15 16 17 17 17 17 17 17 16 15 15 14 14 14 13 13 13 13 14 14 15 14 10 3 4 9 11 10
9 8 8 8 5 2 6 6 3 2 4 5 3 4 3 4 7 8 8 9 9 9 9 9 8 9 9 9 8 8 9 9 10 11 11 11 11 12 12 12 11 11 12 11 11 12 12 11 11 11 11 12 12 13 13 14 14 15 15 16 17 18 18 19 19 18 18 17 16 15 14 14 14 14 14 14 14 14 14 14 11 5 5 9 11 12 13
7 8 8 8 5 2 6 7 4 2 3 4 5 6 7 8 9 9 10 10 9 10 10 11 11 11 11 12 11 11 12 12 12 13 14 13 13 13 13 14 14 14 14 13 13 13 12 12 12 12 12 13 14 14 15 16 16 16 16 17 18 19 19 19 19 19 18 18 17 16 15 15 16 16 15 15 15 14 13 11 9 7 7 10 12 15 16
5 7 6 3 1 0 4 6 5 4 5 7 8 8 9 9 10 10 9 10 10 11 11 12 13 13 13 13 13 13 13 14 14 14 15 16 15 14 14 15 16 16 16 16 15 15 14 14 13 13 14 15 16 17 17 17 17 18 18 18 19 19 18 18 18 18 19 19 18 17 17 18 18 17 17 17 15 13 10 8 9 9 10 13 15 16 16
5 7 6 5 4 6 7 6 6 8 9 9 10 11 10 10 10 9 9 11 12 12 13 14 14 14 14 15 14 14 15 15 15 16 17 18 18 17 17 18 17 17 18 17 16 16 16 15 15 15 15 16 18 18 19 18 18 19 19 19 19 19 19 19 19 19 20 19 20 20 20 19 18 17 18 18 14 10 9 10 11 12 13 14 16 16 16
9 10 10 10 10 9 9 8 8 10 11 11 12 12 12 11 11 10 11 12 13 14 15 15 14 15 16 16 16 16 16 16 17 18 19 20 21 21 20 20 19 19 19 18 18 17 17 17 16 16 16 17 19 19 19 19 19 19 20 21 21 21 21 22 21 21 21 21 21 22 21 19 18 16 14 13 11 10 12 12 14 15 15 16 16 15 15
8 8 8 9 10 10 10 12 12 12 13 12 11 11 11 11 12 12 13 14 15 16 16 16 16 17 18 18 18 17 16 17 18 18 19 21 23 23 22 20 19 19 19 18 18 18 18 17 16 17 18 19 19 20 20 19 19 20 21 22 23 23 24 24 23 23 23 22 21 21 20 18 15 10 7 7 10 13 14 16 18 19 18 18 17 15 14
8 9 10 11 12 13 12 11 11 11 12 13 13 12 12 13 14 15 15 16 16 16 16 18 18 19 18 19 18 17 16 16 16 17 20 22 22 22 22 21 20 19 19 19 18 18 18 18 18 18 19 19 19 19 19 19 18 19 21 22 24 25 25 25 24 24 24 22 19 18 15 10 7 6 6 9 12 13 15 17 19 19 18 17 17 15 14
8 10 10 9 10 11 12 11 12 12 13 14 15 16 16 16 17 17 18 19 18 17 18 19 19 20 20 19 20 19 17 16 16 17 20 22 22 21 22 21 19 19 20 19 19 19 19 18 18 18 18 19 18 17 16 16 16 18 20 22 24 25 25 25 26 25 22 17 13 11 8 8 9 9 10 13 16 16 16 17 18 17 15 15 16 15 13
7 8 9 9 10 10 11 13 15 16 15 16 17 17 17 17 18 17 18 19 18 18 19 19 18 19 19 20 21 20 17 17 18 20 21 21 21 21 21 20 20 20 20 20 19 19 18 17 17 17 17 17 15 12 12 14 15 17 20 21 22 23 22 21 21 20 15 9 9 12 14 16 17 17 16 18 20 20 17 16 17 17 16 15 16 16 15
8 10 12 12 11 11 12 15 16 16 15 16 17 17 16 16 16 16 16 17 16 16 17 19 18 17 17 20 21 19 18 20 22 23 22 21 21 20 20 20 20 20 20 19 18 18 18 17 17 16 16 14 10 8 9 11 13 14 16 17 16 15 11 9 9 10 11 12 15 17 19 21 23 24 24 22 22 21 18 17 18 18 17 16 15 15 16
11 12 13 12 12 13 14 16 16 15 14 14 15 16 15 15 15 16 16 16 16 16 16 18 21 20 19 21 21 18 19 23 24 23 22 21 20 20 20 20 20 20 20 19 19 18 17 16 15 15 13 10 6 5 5 6 7 7 7 7 5 3 3 6 9 12 15 17 19 21 22 21 21 23 25 24 23 21 20 19 18 18 17 15 14 14 14
11 12 13 13 14 14 14 14 14 13 13 14 14 14 16 17 18 19 18 16 17 18 17 18 22 23 22 23 22 19 19 22 24 24 22 20 19 19 19 19 20 19 19 19 18 16 16 15 14 13 10 4 1 1 3 3 3 3 3 4 6 8 11 14 18 19 19 20 20 20 20 20 19 20 21 19 18 19 19 18 17 15 14 13 12 12 12
12 13 14 14 14 12 11 11 11 11 14 16 15 15 18 19 20 21 20 18 18 20 19 18 21 23 23 23 23 21 19 19 21 21 19 18 18 18 18 19 19 19 19 18 17 16 15 14 12 11 6 1 4 5 7 8 7 8 9 10 11 13 15 17 18 18 18 20 20 18 18 19 18 17 17 16 15 16 16 15 13 12 11 10 10 9 10
11 11 12 13 12 11 11 12 12 13 16 17 16 16 19 21 20 20 20 20 20 21 21 20 21 22 22 21 21 20 18 17 18 17 17 17 18 18 17 18 18 18 18 18 17 16 14 12 12 9 4 7 8 8 10 10 10 11 12 12 13 14 16 16 17 17 18 18 18 17 17 17 15 15 16 15 14 13 13 12 11 10 10 10 9 8 7
9 9 9 10 11 11 13 14 15 16 16 16 16 17 18 19 18 17 17 17 17 18 18 18 16 15 15 16 15 15 14 14 15 15 15 16 17 16 16 17 17 17 18 18 18 17 14 13 12 6 10 13 12 11 12 13 13 12 11 10 11 12 14 14 15 16 18 17 16 17 16 15 15 14 14 13 12 12 12 11 10 10 9 9 8 6 5
9 10 9 10 11 12 13 13 14 14 14 15 16 16 15 14 14 13 13 13 13 12 12 14 14 13 13 14 14 13 12 12 13 13 13 14 15 15 16 17 18 19 20 20 20 18 16 15 12 9 16 16 14 15 14 14 14 12 9 8 7 8 11 13 14 16 18 17 17 17 16 15 15 13 11 11 11 10 10 9 9 9 10 9 8 8 7
10 10 11 11 11 12 12 11 11 12 13 13 13 12 11 11 11 11 11 11 10 10 11 13 14 13 13 14 14 13 12 12 13 13 13 13 13 14 15 16 16 17 17 18 18 17 17 16 12 15 20 19 17 17 14 12 13 12 9 7 5 4 6 10 12 15 17 17 17 17 15 14 13 12 11 11 10 10 9 9 8 8 9 8 8 7 8
12 12 13 12 11 11 10 10 10 10 11 11 10 10 10 10 10 10 10 10 9 10 12 13 13 13 13 14 13 14 13 12 11 10 10 10 10 10 11 12 12 13 14 14 14 15 15 14 15 21 23 20 18 16 12 10 12 11 9 7 5 4 6 6 5 9 14 16 15 15 14 13 12 12 11 10 9 10 9 8 6 6 5 4 4 5 5
13 14 13 11 10 11 10 9 9 9 8 8 8 9 9 9 9 9 9 9 10 11 12 12 12 12 13 13 13 13 11 9 8 8 8 8 8 7 7 7 7 7 7 7 9 15 16 15 21 26 24 20 17 15 10 7 8 8 7 7 6 7 7 6 5 9 14 16 13 12 12 12 11 10 9 8 8 8 8 6 5 3 2 3 6 8 5
12 12 12 11 11 11 10 9 8 8 7 7 7 7 8 9 9 10 10 11 12 11 11 11 12 12 13 13 13 13 10 8 7 8 10 10 10 9 8 7 5 7 10 10 3 8 16 21 27 27 24 19 16 12 9 6 6 6 7 7 7 6 6 6 8 11 14 13 11 10 10 9 8 7 6 5 5 5 5 5 4 2 2 4 7 6 5
10 9 10 10 8 8 8 8 7 6 5 6 7 8 10 11 11 12 12 13 12 12 12 12 13 14 14 14 14 15 13 10 8 9 12 13 13 13 11 8 9 17 23 25 21 16 19 25 27 25 21 16 12 9 7 6 5 5 6 7 8 7 7 7 8 10 11 11 10 9 8 7 6 6 6 5 5 6 6 5 4 3 3 4 5 5 7
10 10 9 7 6 6 6 5 5 5 5 6 7 8 10 11 12 13 14 14 13 13 14 14 14 15 15 15 15 16 16 14 13 14 16 16 15 15 13 9 11 20 28 30 30 28 26 26 26 23 18 13 10 9 8 7 6 6 8 9 8 8 9 10 8 8 9 9 8 8 8 8 8 8 7 7 7 8 7 7 6 5 5 5 5 5 8
9 7 6 6 5 4 4 5 5 6 7 7 7 8 9 11 12 13 14 14 15 15 15 15 16 16 17 16 16 17 17 18 19 19 18 17 15 13 13 14 14 18 24 27 27 28 30 28 24 21 17 14 13 12 10 9 9 8 9 9 8 7 9 10 9 8 7 7 8 9 9 9 9 9 8 8 8 8 7 7 6 6 5 6 6 5 5
6 5 5 4 3 4 6 7 8 8 8 8 8 8 9 10 11 11 12 13 15 15 15 15 16 16 17 18 19 19 20 20 19 19 18 16 13 11 13 17 19 19 20 20 20 23 29 28 24 22 21 20 18 15 12 12 12 11 9 8 7 7 9 9 9 8 7 7 8 9 9 8 9 9 9 9 9 9 8 7 6 6 6 6 6 5 4
5 5 4 4 4 6 7 8 9 8 8 8 8 8 9 9 9 9 9 11 12 13 14 14 14 15 16 17 18 20 21 21 20 18 16 14 11 11 16 20 22 21 19 18 19 24 27 25 23 22 21 20 19 17 15 14 14 13 10 9 9 9 8 7 7 7 7 8 8 9 8 9 9 9 9 9 9 9 9 8 7 6 5 5 5 4 4
3 4 5 6 7 7 8 8 8 8 8 7 7 7 7 7 7 7 8 8 9 10 11 11 11 12 14 15 15 16 18 20 20 19 16 14 14 17 22 25 25 24 22 22 25 27 26 23 22 22 20 18 17 16 15 15 15 13 11 10 10 11 9 8 8 8 8 9 10 10 10 10 10 9 9 9 8 9 9 8 7 6 5 5 5 5 5
4 6 7 7 7 7 7 7 7 7 6 6 7 7 6 6 6 7 8 8 8 8 9 10 10 10 12 12 13 13 15 17 18 19 19 18 17 18 20 23 26 26 24 24 26 27 25 22 20 18 17 16 15 14 13 15 16 15 12 10 11 11 11 10 10 10 9 9 10 10 10 10 10 9 9 9 8 8 7 7 6 6 6 5 5 5 6
6 7 7 6 6 5 5 5 5 5 5 6 6 7 7 7 7 8 8 8 8 8 9 10 10 10 10 10 10 11 12 14 16 19 20 20 19 17 17 19 24 25 23 22 23 23 23 23 21 17 15 16 17 15 14 15 16 16 15 13 12 12 12 11 11 10 9 9 9 9 10 10 10 9 9 9 8 8 7 7 7 7 6 5 5 6 6
7 6 6 5 4 4 4 4 4 4 4 5 5 6 7 7 7 8 8 8 8 8 9 10 10 10 9 10 10 11 12 13 14 17 20 20 19 17 15 16 20 22 21 20 20 18 18 21 23 21 17 17 17 17 15 14 14 15 16 15 13 12 12 11 11 10 10 10 10 10 10 10 9 9 9 9 8 8 8 7 7 7 6 6 7 7 7
7 6 5 4 4 3 3 3 3 3 4 5 6 6 7 7 8 8 8 9 9 9 9 9 10 10 11 11 11 11 12 12 12 13 15 17 19 19 16 14 17 20 19 18 19 18 17 19 22 22 19 17 16 15 13 13 13 14 14 14 14 13 12 11 11 10 10 10 10 10 10 10 9 9 8 8 8 8 7 7 7 7 7 7 7 8 8
7 7 5 4 4 2 1 2 2 3 3 4 5 5 5 6 7 8 8 9 9 10 10 10 10 10 10 11 11 11 12 12 12 11 11 12 15 18 18 15 15 18 18 18 17 17 17 18 19 20 18 18 17 14 13 12 13 13 13 14 14 13 12 12 11 10 10 10 10 10 10 10 9 8 8 8 8 8 8 8 8 8 8 8 8 8 8
8 7 6 5 3 3 2 1 2 2 3 3 3 3 4 5 6 6 7 8 8 9 10 10 10 10 10 10 10 10 11 12 12 11 11 10 10 12 15 15 15 16 17 17 16 16 17 17 18 18 18 17 16 14 13 13 13 13 13 13 13 13 12 12 11 11 10 10 9 9 9 9 9 9 8 8 8 8 8 8 9 9 9 9 9 9 9
9 8 8 6 5 4 4 3 2 2 2 2 2 2 3 3 4 5 6 6 7 8 8 9 10 11 11 10 8 8 10 11 12 12 12 12 10 9 11 13 14 15 16 16 15 15 15 17 17 17 17 16 14 13 13 13 13 13 13 13 13 12 12 11 11 11 11 10 9 9 9 8 9 9 8 8 9 9 9 9 9 9 9 9 9 9 9
9 9 9 9 7 6 6 5 4 4 4 3 2 2 2 2 3 4 5 5 6 6 8 8 9 10 11 11 10 9 8 9 10 12 12 11 11 10 10 10 11 12 15 17 17 15 15 16 16 17 16 15 14 14 14 13 13 13 13 13 12 12 11 11 10 10 10 10 10 9 9 9 8 8 8 8 8 8 8 9 9 8 8 7 8 8 8
9 9 10 10 9 8 8 8 7 6 5 3 2 3 2 1 2 2 3 3 3 4 6 7 8 9 10 10 11 11 10 9 9 10 10 10 10 10 11 11 10 9 11 13 15 16 16 17 17 16 16 15 14 14 14 14 13 13 12 12 11 11 10 10 9 9 9 9 8 8 8 8 8 7 7 7 7 7 8 8 8 8 8 7 7 7 8
10 10 11 11 11 10 9 9 8 7 5 4 3 3 3 2 1 1 1 1 2 3 4 5 6 6 7 8 9 10 10 10 9 9 9 10 10 9 10 12 12 11 9 9 11 13 15 17 17 16 16 15 14 14 14 13 13 12 12 11 11 11 10 10 9 9 8 8 8 7 7 7 7 7 7 6 6 7 7 7 7 10 11 10 8 8 8
9 11 11 11 11 10 11 10 9 7 6 5 4 4 4 3 3 2 2 2 1 2 3 4 5 5 6 6 7 7 8 8 9 8 8 9 10 10 9 10 11 12 11 10 10 11 13 14 14 14 14 14 14 13 13 12 11 11 11 10 10 10 9 9 9 9 8 8 7 7 7 6 6 6 6 6 6 6 6 6 7 10 10 9 8 8 8
10 11 11 10 10 12 13 13 11 8 6 5 4 4 4 3 2 2 2 0 1 1 2 3 4 5 5 5 6 6 6 6 7 7 6 6 7 8 8 9 9 10 11 10 10 11 11 13 13 13 12 12 12 12 12 11 10 10 10 9 9 8 8 8 7 7 7 6 6 6 6 6 5 5 5 5 5 5 5 5 6 7 7 7 7 7 8
10 11 11 11 12 13 14 13 11 8 7 6 6 6 5 4 3 4 4 1 2 0 2 3 4 4 4 4 5 6 6 6 7 7 6 6 6 6 7 7 8 8 9 9 10 10 10 11 12 12 12 11 10 11 10 10 9 9 8 8 8 7 7 7 6 5 5 5 5 5 5 5 4 4 4 4 4 4 4 5 5 6 6 7 7 8 8
Wind_Direction
264 268 272 276 277 278 277 272 268 270 272 270 265 259 260 266 267 268 282 291 287 288 293 283 267 257 254 247 237 236 229 212 210 209 200 200 198 193 177 148 131 122 114 106 99 91 86 86 85 81 81 80 78 72 61 56 52 47 41 31 24 16 2 348 329 317 311 306 301 292 280 267 260 258 253 247 246 247 246 245 245 242 237 232 230 230 232
270 270 271 273 274 274 272 266 263 263 265 264 264 264 263 263 264 268 276 282 280 281 286 287 295 307 289 268 252 241 231 220 218 223 227 225 217 206 184 158 140 127 119 114 108 97 85 81 79 71 65 65 70 70 60 51 41 33 27 18 7 348 333 320 310 304 297 294 291 282 280 279 276 274 267 254 245 241 239 239 242 243 239 236 235 235 235
274 275 277 274 270 271 271 267 263 260 261 262 261 262 263 262 265 269 272 274 277 282 284 281 278 277 272 263 251 244 236 227 228 233 235 232 227 216 192 167 151 138 128 118 112 108 100 94 90 82 69 57 62 61 49 39 25 12 1 352 339 320 310 302 295 291 287 283 280 278 277 275 274 274 272 268 258 247 241 237 236 237 236 237 239 239 239
268 273 273 272 277 279 271 265 264 261 261 264 264 264 266 265 268 273 274 272 273 275 274 272 270 266 261 253 246 244 241 239 242 243 238 233 227 217 206 193 168 147 135 122 111 105 104 107 104 92 77 59 66 57 39 33 17 353 336 318 302 295 292 290 289 289 286 284 281 279 277 273 272 273 271 269 261 250 244 241 239 238 234 234 237 241 243
269 271 271 278 304 298 272 264 268 265 261 261 262 261 263 265 265 265 266 267 274 282 281 280 282 277 271 265 260 257 256 253 250 244 240 237 223 210 214 216 191 156 134 120 109 94 86 81 61 49 34 29 47 27 358 359 343 323 312 299 292 291 287 287 290 288 284 281 279 277 276 273 273 272 269 268 264 257 251 245 242 240 236 234 234 238 240
270 274 278 282 278 265 264 278 284 277 273 266 263 264 266 266 265 266 272 277 284 291 289 285 282 278 274 280 286 283 277 267 251 246 250 245 210 192 203 223 218 170 116 104 98 90 82 56 25 1 343 359 357 327 325 334 328 319 312 304 299 296 293 293 293 288 284 281 277 275 275 273 272 269 266 265 262 259 257 252 247 242 239 237 236 237 238
270 276 275 264 256 252 262 287 296 308 306 288 279 279 275 271 273 279 286 287 287 291 293 293 291 286 282 284 287 279 269 260 252 252 249 216 184 183 193 219 244 261 205 114 99 90 49 6 324 296 301 326 319 312 315 315 309 303 300 297 294 291 292 293 291 286 283 281 280 280 278 273 270 266 264 263 261 259 257 255 251 248 243 240 239 239 240
265 265 252 250 263 264 245 243 241 235 265 274 280 277 271 270 279 285 288 290 287 286 292 298 298 298 291 277 274 287 284 266 250 244 228 196 183 191 213 233 253 267 268 263 91 40 327 313 299 300 313 317 309 304 302 298 294 293 292 290 288 286 285 287 286 282 279 278 277 277 275 272 269 265 263 261 260 259 258 256 255 252 247 243 240 238 239
257 259 256 258 271 267 248 244 275 330 280 295 301 288 281 279 280 289 290 287 283 280 282 286 290 297 291 271 257 344 350 337 313 269 208 173 185 229 241 244 252 256 260 268 295 302 298 295 297 301 302 300 296 291 289 289 289 291 291 290 290 289 288 287 285 282 278 277 275 273 271 269 266 264 264 262 259 259 259 258 256 253 250 247 242 239 241
253 258 261 259 262 264 257 313 41 38 27 11 324 289 286 271 255 310 299 283 286 296 296 298 301 296 285 270 246 64 22 31 17 351 236 185 210 242 247 251 253 252 257 282 298 293 286 281 283 287 287 288 286 283 281 282 286 289 290 291 292 293 293 292 290 286 282 279 278 275 272 271 269 267 265 263 261 259 258 259 259 257 254 249 245 245 243
249 252 257 257 258 269 19 70 65 54 44 26 315 272 273 36 43 355 329 303 301 306 296 302 305 289 279 285 353 2 350 27 44 333 276 255 258 262 262 264 264 263 274 290 291 285 278 278 281 282 283 283 280 279 279 280 283 286 288 289 291 293 294 293 291 288 285 282 279 277 274 272 271 270 268 266 264 261 260 262 260 257 257 253 244 235 212
247 248 252 257 257 298 49 50 40 33 26 7 291 264 277 56 36 2 349 338 332 316 298 300 295 281 288 341 29 345 328 307 296 291 273 270 273 267 265 272 282 286 286 285 283 278 276 278 280 277 276 277 276 276 277 277 278 281 283 286 290 292 292 291 288 286 283 279 276 274 274 272 269 268 267 265 264 263 263 264 261 261 264 252 207 158 156
246 246 251 257 255 58 44 6 3 11 331 280 268 272 346 30 330 320 327 321 321 315 302 297 286 285 310 341 314 277 281 280 284 283 275 275 278 275 276 283 292 290 286 285 283 281 280 279 277 275 276 276 276 276 276 274 275 278 281 283 286 288 288 286 284 283 281 278 276 274 273 271 269 268 266 264 264 264 263 262 260 261 254 146 135 130 146
250 251 257 261 258 37 17 342 330 314 272 261 284 317 324 305 301 308 305 298 301 301 297 298 297 296 302 303 296 289 285 281 280 281 282 283 285 287 289 292 291 287 283 281 278 276 278 278 278 279 279 279 280 280 278 276 277 278 280 282 283 284 284 283 282 282 279 276 274 272 270 269 268 267 267 267 266 265 264 258 248 224 123 122 124 120 132
256 254 256 262 260 32 10 343 334 306 284 306 335 328 306 299 300 299 297 295 295 292 293 295 297 297 296 295 293 292 291 288 282 278 279 280 282 287 291 291 291 291 288 286 283 282 282 281 280 280 279 279 280 280 278 279 280 280 279 281 281 281 281 281 280 279 277 274 270 267 266 268 268 268 267 266 265 264 259 242 218 186 148 138 131 121 123
261 252 254 266 245 338 331 328 324 311 305 312 316 308 301 303 302 297 296 297 294 292 291 291 290 289 287 286 286 285 286 290 292 290 287 284 283 285 286 286 288 289 287 285 285 285 285 285 284 282 280 280 281 281 281 282 282 280 278 279 279 278 278 278 278 278 277 274 268 266 267 269 269 267 263 261 261 257 242 212 190 181 165 146 135 130 129
279 272 281 295 286 286 301 310 307 300 296 295 297 296 292 293 295 295 296 296 297 296 293 292 292 290 286 284 285 283 281 281 284 285 284 283 282 283 285 285 284 284 283 284 285 284 285 285 283 280 279 280 281 281 282 282 280 278 277 277 277 278 279 279 279 278 277 275 271 269 270 268 266 263 261 259 253 231 201 184 178 176 164 146 138 138 138
292 281 281 290 293 300 308 304 297 296 293 291 292 290 285 287 291 292 290 292 295 294 290 289 288 286 285 285 283 282 281 278 277 278 279 280 279 279 281 283 284 284 284 285 285 283 282 282 281 281 280 280 281 281 282 281 279 278 278 278 278 280 281 280 278 277 275 275 273 270 267 264 261 261 259 254 235 196 176 175 175 170 157 146 144 143 142
292 287 287 296 300 301 301 297 295 294 292 294 298 296 295 300 301 299 296 295 293 291 288 286 284 283 284 283 281 280 280 279 278 278 278 279 281 281 281 283 286 287 286 285 286 286 286 286 285 284 282 280 280 281 282 281 280 278 279 279 278 277 277 275 275 275 272 271 269 268 267 265 258 248 230 211 196 182 174 172 172 167 157 149 147 146 145
280 283 288 295 298 296 295 294 295 296 298 302 305 304 302 301 296 294 293 290 289 287 285 285 285 284 283 282 281 281 280 279 278 276 275 277 279 280 281 281 284 286 286 286 288 287 287 286 284 282 281 280 281 283 282 281 282 280 280 278 276 275 275 274 273 272 269 269 268 264 261 254 229 197 173 172 173 170 168 166 162 159 153 147 143 143 146
280 279 287 307 315 304 294 292 296 300 304 305 302 300 298 295 292 290 288 286 286 286 285 285 285 283 281 280 280 279 278 277 278 278 279 281 281 281 282 283 283 284 284 284 285 284 284 285 283 280 281 281 282 284 285 287 288 286 283 280 277 276 275 273 271 268 267 267 257 234 201 156 145 142 143 150 148 141 143 149 145 141 141 139 140 142 142
285 295 309 321 319 301 293 300 305 306 307 304 301 299 296 294 293 293 291 290 290 289 287 286 284 282 283 282 279 278 277 276 277 279 281 282 282 281 282 282 280 279 279 281 283 284 284 285 284 282 283 284 286 292 298 297 291 286 283 281 278 277 276 273 267 261 252 232 194 170 147 134 131 126 127 139 140 133 134 140 138 137 138 136 136 135 125
299 308 312 312 306 297 300 305 305 306 306 304 301 300 300 301 303 304 302 299 298 294 290 288 285 283 283 283 282 281 278 275 275 275 276 277 279 280 280 280 279 279 280 282 283 284 285 284 283 283 285 288 295 306 309 303 295 289 285 281 278 276 271 259 242 222 195 169 155 146 137 131 127 119 114 119 125 127 133 135 131 129 129 126 127 129 124
298 298 302 306 301 299 302 303 302 304 306 305 304 305 307 308 307 306 304 301 300 299 296 293 291 290 287 284 282 281 281 280 278 277 278 279 281 282 282 282 282 282 283 283 282 283 284 283 282 284 288 296 310 322 323 319 313 305 293 275 258 238 177 149 143 140 139 138 136 134 131 128 123 116 112 109 108 114 123 126 122 119 117 115 116 121 125
300 301 306 306 301 300 303 303 303 307 310 310 310 308 308 309 308 306 305 302 299 298 296 295 295 293 290 287 283 278 278 280 281 282 283 283 282 282 282 282 282 282 282 281 279 279 280 281 283 286 291 302 353 54 57 47 42 55 84 118 126 116 111 114 116 116 118 121 123 123 123 122 122 121 120 115 109 110 113 115 112 106 104 105 107 112 122
312 311 309 306 302 303 306 305 307 314 317 315 311 307 308 309 307 305 302 298 296 297 295 293 293 290 287 285 282 277 275 275 277 281 285 285 283 283 283 283 284 283 281 280 277 276 277 278 283 287 287 157 128 119 104 95 93 90 88 94 104 108 109 112 112 111 111 114 117 118 120 124 126 124 122 121 118 114 112 111 111 108 110 116 120 123 131
320 316 313 309 307 308 312 312 313 315 316 313 310 308 308 308 306 304 300 296 294 293 290 288 289 288 286 286 285 284 284 284 283 285 287 287 287 288 288 287 287 285 283 279 276 274 273 271 275 274 213 152 142 125 112 107 101 91 84 87 94 99 101 103 105 107 109 114 119 122 123 124 122 118 117 119 120 119 120 124 126 128 134 141 142 139 136
323 323 321 314 308 310 314 314 313 313 312 309 308 309 308 307 308 306 302 300 301 299 297 300 306 308 307 310 310 308 306 302 297 296 294 293 294 296 296 294 291 286 282 277 273 272 268 265 263 230 156 148 144 128 117 114 109 101 93 93 100 107 111 110 111 117 122 126 128 126 124 122 118 118 122 125 123 124 129 133 137 141 145 149 151 152 147
326 324 318 310 307 309 310 309 309 309 307 307 311 315 315 317 317 312 311 320 328 327 325 328 331 331 329 329 328 327 324 319 313 310 306 300 297 296 295 293 288 284 279 273 268 264 259 255 243 178 149 149 146 135 128 123 119 117 114 112 118 133 137 136 133 132 132 133 130 126 124 124 124 126 128 126 126 130 133 138 147 149 146 149 160 175 182
322 320 314 310 309 307 306 308 312 312 312 317 326 333 335 335 330 322 326 336 341 340 339 336 334 336 337 335 331 326 319 312 307 305 302 298 294 291 291 290 287 282 275 268 262 254 246 241 215 164 152 155 152 145 142 136 131 131 129 121 114 110 116 123 130 133 131 126 125 128 132 131 130 130 129 129 138 144 142 147 159 154 149 160 175 181 180
320 317 314 313 312 309 311 320 325 326 329 337 344 347 346 342 335 331 335 338 337 338 341 338 338 341 340 335 330 324 316 312 313 312 309 306 305 303 299 295 287 277 270 266 259 248 235 217 182 160 154 155 154 151 148 142 138 136 130 119 113 110 110 107 111 128 131 130 131 136 138 135 132 133 135 142 151 147 139 144 154 149 147 155 127 96 105
319 319 321 326 328 324 327 338 341 340 349 357 353 348 348 345 340 337 339 340 341 344 346 345 346 348 346 345 344 337 328 328 341 346 343 339 337 336 330 318 301 284 279 275 257 243 225 185 158 155 155 153 153 153 146 133 129 125 116 110 110 118 128 123 101 116 132 138 138 135 131 130 131 132 135 143 147 142 137 136 134 130 125 94 77 66 56
323 324 327 332 333 330 335 346 348 345 354 2 0 360 2 359 357 356 355 356 359 1 1 1 360 358 358 1 3 1 360 2 7 9 6 360 1 10 12 9 23 39 43 49 73 204 187 158 147 152 155 152 149 147 140 128 120 104 96 105 109 111 124 130 121 125 135 139 134 127 126 127 125 118 119 128 129 124 126 126 116 105 69 70 72 56 17
324 320 317 323 333 336 341 349 349 349 6 21 25 23 17 12 10 10 8 9 12 11 10 8 2 359 359 0 5 15 24 27 21 15 10 5 7 16 20 28 52 57 55 56 63 88 122 134 137 142 144 143 139 131 121 124 124 104 97 109 119 127 144 148 138 136 141 138 129 124 121 110 93 86 90 97 87 76 74 73 67 57 48 62 70 49 12
326 320 323 343 4 5 1 2 1 12 33 41 37 29 22 18 17 14 12 13 14 11 7 3 357 357 0 2 6 17 26 29 27 21 13 6 6 13 19 26 46 56 56 53 54 66 88 110 122 127 128 125 119 111 105 104 106 107 115 122 126 139 158 165 162 155 147 131 111 100 96 89 77 70 74 81 76 69 66 62 54 51 48 49 57 45 17
335 334 350 15 23 27 45 53 45 43 46 43 36 30 27 25 22 16 11 10 10 7 6 2 358 359 3 6 10 16 20 23 26 23 18 12 9 16 31 36 40 50 52 46 44 58 77 91 104 111 110 103 98 98 100 104 107 110 116 118 118 131 152 164 164 153 131 101 81 80 87 89 83 73 69 73 71 69 69 65 58 56 53 44 43 39 19
356 13 30 43 56 72 73 62 50 47 49 45 37 32 28 26 24 19 11 6 2 0 1 0 359 1 4 5 10 16 18 19 21 22 23 21 17 22 38 41 40 46 48 38 34 52 69 79 87 91 88 84 84 85 92 102 106 104 101 101 106 125 150 164 163 144 118 96 90 93 93 90 85 76 70 69 67 63 61 59 53 52 52 47 40 30 15
24 45 69 97 99 83 67 54 42 38 39 41 38 33 28 26 26 23 17 9 0 357 357 355 356 3 9 9 11 15 15 13 15 19 24 27 29 38 45 42 40 43 44 37 38 53 64 73 80 81 77 75 77 80 87 96 97 91 90 92 94 102 124 143 141 123 107 98 98 96 87 82 82 78 71 69 68 63 58 53 49 44 40 41 42 28 13
68 95 109 106 91 74 63 52 38 25 23 31 37 34 30 28 26 23 22 18 11 4 359 355 358 11 18 17 18 20 17 12 11 13 16 23 34 46 49 44 39 40 41 42 47 55 62 68 72 71 67 68 72 75 82 91 92 84 83 90 91 88 93 100 96 88 83 82 85 85 81 77 76 74 71 69 68 66 61 55 50 44 35 31 32 23 14
114 119 115 98 76 64 57 47 35 25 23 29 36 37 32 27 24 23 24 26 28 24 15 9 12 19 19 18 21 26 26 22 17 14 15 20 30 40 44 38 33 34 37 41 48 54 59 62 65 62 57 59 64 66 74 87 89 80 72 77 84 83 83 85 85 82 81 82 82 84 83 79 75 74 73 71 68 67 65 59 53 47 40 34 29 21 16
132 128 120 102 79 66 57 46 40 37 28 21 24 30 29 23 23 26 25 24 30 36 33 27 25 23 19 19 24 29 31 33 31 28 27 26 28 34 39 33 27 29 35 40 45 51 56 58 60 58 53 55 59 59 60 70 77 73 65 63 68 73 75 76 77 77 78 79 80 80 81 81 79 76 74 71 66 62 59 55 50 44 37 33 30 25 22
140 138 129 111 89 73 65 60 52 40 29 26 30 33 33 30 28 28 27 22 22 29 36 37 35 32 30 29 31 30 32 36 39 41 42 39 35 37 41 34 26 29 36 41 43 46 50 54 58 60 59 60 63 62 59 59 64 67 64 62 64 68 72 74 76 76 76 75 77 78 78 79 79 76 72 69 65 60 55 51 47 39 31 24 21 18 18
154 159 153 136 118 98 89 94 89 63 44 43 42 37 35 34 30 28 30 28 23 22 26 28 32 37 40 41 40 36 33 33 36 42 49 49 45 43 43 37 30 31 37 41 43 45 46 50 55 58 59 61 65 69 69 66 65 67 67 67 67 68 70 72 73 75 74 72 73 75 74 73 73 72 69 66 63 59 54 50 44 37 31 26 22 17 14
174 180 175 157 143 133 125 115 104 84 62 54 48 41 39 38 32 29 30 29 26 24 22 22 25 30 36 42 46 44 38 35 36 38 44 47 43 40 38 35 32 34 38 43 46 46 46 48 53 58 60 61 63 66 69 69 68 69 69 69 69 70 71 70 70 70 71 72 73 74 73 72 70 69 68 66 63 60 54 50 46 43 38 34 29 22 16
192 196 196 193 188 182 177 160 114 93 84 75 61 47 37 34 33 31 29 27 27 26 23 24 26 26 26 35 49 57 56 51 46 44 47 50 45 37 35 36 36 37 40 44 47 48 49 52 55 58 60 60 60 62 64 65 65 66 67 66 67 68 67 67 67 66 66 67 69 69 70 71 71 70 70 68 64 61 58 55 53 49 42 37 31 24 18
197 200 205 210 216 217 214 204 167 136 138 141 119 81 51 37 34 34 32 30 31 31 30 30 31 29 26 26 37 55 65 64 59 56 60 66 66 57 48 47 47 46 47 49 49 48 48 52 55 58 59 59 59 60 62 62 63 65 65 64 64 65 65 64 64 64 63 64 66 67 70 73 72 72 72 70 66 63 61 57 53 47 41 36 30 22 17
202 205 209 211 214 222 226 217 199 199 213 213 166 109 84 51 39 39 36 33 33 36 38 38 36 35 33 31 31 34 44 57 61 61 61 65 69 65 53 48 53 58 59 58 58 57 55 55 57 59 59 58 57 58 59 59 59 61 62 61 61 62 62 62 63 63 63 65 66 67 70 72 71 71 71 69 65 61 58 55 48 40 34 30 25 20 17
204 208 215 216 216 219 221 217 214 218 224 215 152 125 119 95 73 63 47 36 38 45 48 48 46 42 40 39 38 34 33 41 53 55 51 53 62 64 55 49 55 67 69 65 62 60 58 58 59 57 56 56 57 57 56 55 55 56 58 59 60 60 60 61 62 61 63 65 66 66 67 68 68 68 69 66 60 56 56 53 43 37 37 36 29 21 19
198 203 212 217 218 216 214 217 224 226 216 194 166 156 160 169 171 147 83 33 33 47 52 55 59 55 49 48 48 45 42 45 53 56 51 48 53 57 54 50 50 55 61 65 63 57 52 51 52 51 51 52 55 55 56 57 57 57 57 59 60 60 59 58 58 60 63 64 64 64 65 65 64 64 66 63 56 55 55 50 39 39 44 46 39 29 25
192 199 206 213 215 211 208 214 223 219 202 191 181 170 179 211 220 162 99 68 49 59 55 53 57 58 54 54 56 56 55 58 61 61 58 55 53 51 50 47 45 45 49 55 58 53 47 45 45 48 51 54 55 55 56 58 59 59 60 62 62 61 58 55 56 59 62 62 60 61 64 64 63 65 65 60 52 51 52 46 38 37 39 38 33 28 27
197 198 198 200 206 209 210 215 219 213 196 191 193 186 193 222 221 124 111 219 269 108 90 78 69 64 59 58 60 60 62 66 69 67 64 64 63 59 56 52 47 46 46 48 49 49 48 45 44 45 50 55 57 57 58 59 60 61 62 61 60 59 58 57 55 52 52 53 54 55 58 60 62 61 57 52 51 53 51 43 36 35 36 36 33 28 26
212 206 197 196 205 213 215 216 217 211 201 201 200 195 201 218 199 146 142 205 276 56 103 98 85 72 64 63 67 65 61 62 67 68 64 65 67 67 63 58 54 51 51 50 49 50 50 50 48 47 49 53 57 58 58 60 60 60 59 60 59 57 57 63 68 62 54 54 54 52 52 56 59 53 45 43 47 53 51 44 41 40 40 39 36 32 28